Volver al catálogo

FENGYUN 1C DEB

ActivoSSO
NORAD 29997·DEBRIS·🇨🇳 China

Lanzado May 10, 1999 desde Taiyuan Satellite Launch Center

Loading…

Próximos Pases (próximas 24 horas)

TLE

ActualizadoSource: Space-Track

Época: Sep 14, 2026, 01:03 UTC

1 29997U 99025LX  26257.04409102  .00000785  00000-0  53584-3 0  9991
2 29997  98.8810 265.1319 0078053 282.6354 149.6891 14.01330841  2412

Sigue FENGYUN 1C DEB en tiempo real con AllMySat

Download on the App Store